sat.trackr.live / text

‹ back to catalog

RISAT-2B

NORAD 44233 · 2019-028A

PAYLOAD ACTIVE UNKNOWN

§ Identity

Operator
Country
IND
Launch date
2019-05-22
Launch site
SRILR
Launch vehicle
Mass (kg)
RCS (m²)

External: N2YO · Heavens-Above · Gunter

§ Orbital elements

Epoch: 2026-05-25T03:27:59.645376Z

Period
95.90 min
Inclination
36.9956°
Eccentricity
0.0005623
Mean motion
15.01523551 rev/d
Perigee alt
558.3 km
Apogee alt
566.1 km
Semi-major
6,940.3 km
B*
1.4942e-4
RAAN
130.7498°
Arg perigee
220.3074°
Mean anomaly
139.7252°
Rev number
38,436

§ Raw data

RISAT-2B1 44233U 19028A   26145.14444034  .00001891  00000+0  14942-3 0  99992 44233  36.9956 130.7498 0005623 220.3074 139.7252 15.01523551384363

JSON: /api/v1/satellites/44233 · /tle

For live sub-satellite position, see the globe view (requires WebGL).

§ Visibility from observer

Set your observer location to see the next 7 days of passes ≥ 10°. The values pass through the URL so the page stays shareable.

No JS? Fill the form by hand. The geolocation button needs JavaScript.